Temp
62 62 62 62 62 62 63 63 63 63 63 63 63 62 62 62 63 77 83 95 96 81 80 102 98 100 103 99 102 102 83 77 83 85 88 96 92 99 100 94 93 92 91 92 96
62 62 61 61 62 62 62 62 62 62 62 62 62 62 62 62 75 86 94 88 84 81 98 98 97 100 96 98 100 92 74 80 82 91 91 96 94 94 92 91 92 91 95 96 96
61 61 61 61 62 62 62 62 62 62 62 62 62 62 62 66 82 93 84 84 82 84 102 103 103 101 94 98 98 88 74 88 91 95 94 95 94 97 91 87 91 86 89 93 94
61 61 61 61 61 61 61 61 61 61 61 61 62 62 63 76 75 99 81 81 81 96 99 98 99 94 92 91 99 92 94 95 97 99 96 95 98 94 94 92 97 95 93 93 93
60 60 60 60 60 61 61 61 60 60 60 61 62 62 74 82 87 104 81 83 94 96 96 95 95 94 89 94 97 95 95 100 102 101 100 98 95 94 95 99 100 97 93 91 93
60 60 59 59 60 60 60 60 59 59 60 61 62 62 74 76 103 101 102 98 100 98 97 98 97 100 95 94 94 99 99 99 102 101 101 95 95 96 96 100 97 95 92 92 93
59 59 59 59 59 60 59 59 59 59 60 61 63 69 79 84 106 109 106 102 103 101 97 101 103 98 98 93 100 99 93 97 98 99 98 100 90 91 97 99 95 93 92 93 93
59 59 59 59 59 59 58 58 58 59 61 63 64 75 77 102 107 102 107 103 106 106 103 105 105 99 97 100 96 92 93 85 96 98 99 96 80 94 98 96 93 93 92 92 93
59 59 59 59 58 58 57 57 59 61 63 66 69 76 80 97 97 105 106 99 102 104 104 105 102 95 95 88 84 88 80 84 89 99 96 93 80 87 99 96 93 92 92 93 93
58 58 58 58 57 57 56 57 66 64 68 78 81 78 87 91 101 104 106 104 98 98 95 95 93 88 88 84 72 79 82 86 86 93 95 81 72 78 89 93 93 93 93 92 92
58 57 57 57 57 56 59 77 80 76 76 80 85 86 96 100 106 101 105 100 99 94 84 89 82 77 83 86 88 88 87 86 91 94 92 79 67 65 81 89 94 93 93 93 93
58 57 57 57 56 57 63 79 86 86 74 88 89 90 96 103 93 97 105 91 89 82 88 84 77 86 91 90 87 87 85 86 92 93 92 88 73 75 84 91 95 94 94 94 95
57 57 57 56 56 65 81 83 95 92 75 81 90 88 92 96 90 93 99 94 87 83 84 79 85 91 90 87 85 85 84 85 87 92 94 90 85 84 92 96 97 98 98 97 96
57 57 56 54 66 74 77 92 95 93 67 77 89 91 95 95 87 100 102 95 88 83 85 85 91 89 87 85 88 80 91 90 89 85 77 89 71 76 84 90 93 96 97 97 97
57 56 55 54 62 68 84 91 91 86 55 90 91 105 100 90 94 93 103 95 84 84 86 81 85 86 84 86 91 85 93 90 89 84 82 82 77 82 87 85 90 95 97 99 99
56 55 55 66 70 75 84 88 86 65 56 82 91 87 87 91 92 97 94 97 95 87 88 87 96 92 91 93 93 95 90 89 89 86 73 80 77 78 84 83 88 95 98 99 100
55 54 55 64 66 85 84 81 63 57 83 80 84 88 86 84 86 89 85 83 79 73 74 83 85 93 95 88 92 90 84 72 70 72 71 85 78 79 90 92 94 80 86 100 101
53 53 61 71 78 78 76 67 53 70 72 88 89 88 81 86 85 86 84 79 85 84 78 73 71 86 93 88 84 85 84 75 61 67 73 85 77 84 93 96 94 87 80 102 102
52 69 71 79 85 81 69 55 61 69 80 82 85 81 82 85 86 85 83 82 86 86 75 76 75 92 92 94 91 84 79 89 78 81 75 81 85 94 97 92 93 97 102 102 102
58 62 70 84 85 78 62 53 66 76 81 82 74 80 77 82 82 83 82 87 86 91 91 84 74 88 91 93 93 88 91 77 79 64 63 75 77 80 88 89 94 94 97 102 104
58 62 77 87 85 68 55 59 65 74 75 70 70 72 78 80 83 82 83 89 91 90 91 87 81 81 88 84 81 83 81 82 84 79 70 68 75 93 89 92 91 94 99 102 103
61 54 82 84 63 64 59 64 63 70 75 75 76 74 73 76 79 81 81 86 95 94 84 88 83 74 80 91 93 89 83 82 73 69 78 76 78 98 95 97 98 98 100 102 101
54 58 75 76 54 58 64 65 69 68 70 70 70 75 78 74 70 77 83 93 95 91 86 89 79 70 73 83 89 84 86 86 84 82 71 71 76 97 93 89 95 97 99 99 102
51 50 63 70 68 62 59 60 61 71 69 70 70 72 72 71 77 73 77 86 93 93 75 86 82 74 71 74 83 79 83 85 83 75 75 77 81 87 89 91 94 95 95 100 98
51 50 59 50 56 56 50 50 51 53 64 66 61 62 61 61 70 71 77 80 87 86 86 86 73 78 80 83 84 83 82 83 80 80 74 81 81 87 91 91 93 98 97 97 98
40 46 53 52 55 55 52 49 50 54 57 52 54 56 57 55 54 52 67 76 77 85 84 86 72 76 74 82 82 80 84 84 84 83 82 83 82 95 97 97 95 93 96 95 96
51 51 44 46 50 51 54 54 52 53 56 57 55 49 50 54 58 61 67 71 76 79 79 78 75 71 67 78 78 72 80 83 84 87 85 78 85 93 91 92 95 91 97 96 97
MSLP
1017.39 1016.90 1016.42 1015.96 1015.49 1015.03 1014.56 1014.12 1013.67 1013.21 1012.69 1012.16 1011.79 1011.27 1010.64 1010.23 1009.27 1008.21 1005.93 1003.49 1002.94 1003.36 1003.77 1002.73 1002.70 1001.88 1001.10 1001.33 1000.54 1000.14 1000.85 1000.47 999.47 998.33 998.51 998.71 999.21 999.49 1000.46 1001.48 1002.91 1003.85 1004.89 1006.56 1007.44
1017.49 1017.05 1016.49 1015.96 1015.43 1014.93 1014.43 1013.96 1013.46 1012.95 1012.47 1011.98 1011.55 1011.12 1010.52 1010.01 1008.32 1005.48 1002.83 1002.83 1002.77 1003.16 1003.10 1002.12 1001.28 1000.94 1000.21 1000.00 999.18 999.74 1001.40 1000.59 1001.05 998.67 997.98 998.23 999.00 999.99 1000.78 1001.69 1002.22 1003.59 1004.74 1006.07 1007.25
1017.61 1017.15 1016.66 1016.01 1015.38 1014.76 1014.33 1013.86 1013.34 1012.81 1012.32 1011.77 1011.28 1010.91 1010.34 1009.92 1006.77 1002.13 1001.25 1002.16 1002.62 1002.71 1002.31 1001.58 1000.74 1000.11 999.50 999.06 998.14 999.79 1000.69 999.54 998.25 998.35 998.27 998.18 998.64 999.60 1000.52 1001.43 1002.36 1003.80 1004.99 1006.04 1006.86
1017.84 1017.25 1016.68 1016.09 1015.40 1014.75 1014.09 1013.61 1013.14 1012.64 1012.08 1011.60 1011.11 1010.67 1010.06 1008.95 1004.70 1001.59 1001.80 1002.09 1002.43 1002.57 1002.17 1001.31 1000.25 999.76 999.01 998.48 997.57 997.31 997.85 997.32 997.66 997.16 997.43 997.36 998.05 999.02 999.88 1000.77 1002.08 1003.40 1004.91 1005.92 1006.31
1018.06 1017.42 1016.78 1016.10 1015.37 1014.57 1013.84 1013.30 1012.81 1012.26 1011.80 1011.26 1010.87 1010.71 1009.17 1006.63 1002.77 1001.05 1002.08 1002.18 1002.27 1002.07 1001.35 1000.65 999.78 999.35 998.58 998.09 997.22 996.57 996.63 996.07 995.95 996.16 996.54 997.56 997.69 998.54 999.60 1000.46 1001.81 1003.24 1004.88 1005.74 1006.07
1018.11 1017.43 1016.67 1015.93 1015.29 1014.50 1013.62 1012.77 1012.15 1011.73 1011.26 1010.89 1010.57 1010.67 1009.01 1004.97 1000.86 1000.90 1001.10 1001.54 1001.08 1001.12 1000.68 1000.13 999.22 998.96 998.47 997.72 996.92 996.00 995.80 995.72 995.48 995.56 995.98 996.84 997.23 998.29 999.51 1000.35 1001.60 1003.10 1004.47 1005.38 1005.86
1017.98 1017.36 1016.62 1015.77 1015.07 1014.26 1013.34 1012.48 1011.66 1010.99 1010.62 1010.28 1010.05 1009.85 1006.83 1002.29 1000.03 999.49 1000.03 1000.20 1000.34 1000.22 999.78 999.68 999.22 998.82 998.43 997.76 997.03 996.21 995.49 995.09 995.38 995.46 995.50 996.47 997.55 998.02 999.29 1000.36 1001.51 1002.89 1004.07 1004.89 1005.43
1017.74 1017.05 1016.22 1015.31 1014.49 1013.83 1012.93 1011.82 1011.00 1010.36 1009.90 1009.64 1009.67 1008.58 1004.20 1000.25 999.50 999.84 999.23 999.37 999.37 999.13 999.42 999.03 999.14 998.90 998.33 997.98 997.28 996.41 995.66 995.01 994.59 994.95 995.52 996.88 997.32 998.07 999.29 1000.33 1001.38 1002.50 1003.54 1004.32 1004.90
1017.80 1017.05 1016.16 1015.19 1014.10 1012.99 1011.96 1010.78 1009.90 1009.50 1009.33 1009.26 1008.90 1006.91 1001.68 998.75 998.81 998.21 998.35 998.65 998.80 998.92 998.89 998.92 998.58 998.63 998.65 997.94 997.19 996.30 995.17 994.64 994.00 994.56 995.63 997.19 998.84 999.49 999.34 1000.16 1001.03 1001.93 1002.84 1003.58 1004.38
1017.87 1017.12 1016.17 1015.00 1013.97 1012.83 1011.44 1009.08 1008.35 1008.68 1008.60 1008.00 1006.72 1005.08 1000.09 997.76 997.37 997.49 997.85 998.17 998.23 998.32 998.60 998.61 998.31 997.91 997.87 997.51 996.44 995.67 994.72 993.97 993.54 994.57 995.38 997.78 999.96 1000.70 1000.25 1000.45 1000.47 1001.20 1002.00 1002.85 1003.54
1017.78 1016.88 1015.96 1014.86 1013.60 1012.76 1011.60 1008.26 1007.56 1007.14 1006.31 1003.90 1001.72 1000.16 997.25 997.06 996.81 996.75 996.99 997.37 997.65 997.85 997.72 998.00 997.83 996.65 996.65 996.83 996.43 995.29 994.11 993.30 992.87 994.17 995.28 997.39 999.97 1001.92 1000.49 1000.29 999.63 1000.23 1001.00 1001.83 1002.61
1017.56 1016.82 1015.68 1014.21 1012.89 1011.84 1011.49 1008.13 1005.65 1005.34 1002.99 1001.61 999.99 998.95 997.49 996.18 996.06 996.35 996.60 996.91 996.97 996.93 997.30 997.18 996.35 996.40 996.27 996.11 996.01 995.21 993.92 992.79 992.36 993.49 995.23 996.09 998.74 998.58 999.45 998.69 998.23 998.97 999.92 1000.65 1001.55
1017.25 1016.62 1015.61 1014.05 1012.16 1010.63 1008.71 1006.78 1005.32 1004.98 1003.07 998.45 996.87 996.40 995.97 996.33 995.57 995.20 995.94 996.20 996.19 996.33 996.11 995.81 995.28 995.67 995.21 995.01 994.93 994.55 993.59 992.71 992.28 992.91 993.91 994.88 995.99 997.10 996.45 996.90 997.11 997.52 998.50 999.54 1000.35
1017.09 1016.46 1015.85 1014.68 1011.25 1010.15 1007.75 1005.83 1005.42 1004.84 1002.18 996.19 993.57 993.42 994.48 995.04 994.40 994.93 994.78 995.42 995.64 995.37 995.45 994.89 994.86 994.19 994.31 993.86 993.95 993.45 993.30 992.73 992.18 992.30 993.44 994.67 995.28 995.86 996.83 995.75 996.19 996.21 997.02 997.94 999.09
1016.96 1016.29 1016.02 1015.62 1013.76 1010.43 1007.19 1006.49 1006.14 1004.95 1000.14 992.22 991.59 991.23 991.89 992.71 991.79 992.38 993.75 994.46 994.40 994.74 994.77 993.74 993.65 993.20 992.84 992.96 993.12 992.67 992.79 992.47 992.33 992.39 993.76 993.78 994.38 994.14 994.66 994.60 994.88 995.33 995.70 996.36 997.50
1016.76 1016.05 1015.59 1013.29 1012.25 1009.38 1008.18 1007.07 1005.88 1003.74 997.04 991.85 991.03 991.41 991.58 991.89 991.89 990.95 992.38 993.95 994.32 994.38 993.92 993.26 992.82 992.44 991.99 992.36 992.65 992.85 992.64 992.36 992.21 992.16 991.85 992.34 993.28 992.81 993.09 993.12 994.50 994.15 994.83 995.26 995.96
1016.34 1015.46 1015.01 1014.26 1010.92 1008.23 1007.94 1006.38 1004.72 1000.34 994.50 991.42 990.25 990.91 990.87 991.01 991.33 991.28 992.15 992.64 992.83 993.15 992.62 992.44 991.98 991.55 991.63 991.51 991.93 992.35 992.47 992.06 991.73 991.12 990.74 991.25 991.84 991.35 991.63 992.59 992.68 994.72 994.53 994.22 994.88
1015.63 1014.53 1012.17 1011.00 1009.74 1009.52 1008.68 1006.66 1002.06 996.78 995.11 991.16 990.32 990.00 990.48 990.38 990.34 990.39 990.85 991.39 991.99 992.09 991.83 991.46 990.90 991.01 990.59 990.71 990.96 991.43 991.52 991.05 990.91 990.68 990.70 990.44 989.50 989.46 990.73 991.42 992.41 993.13 994.69 992.85 993.36
1015.14 1012.20 1009.85 1008.05 1007.49 1008.16 1007.56 1004.34 998.86 997.03 994.46 992.45 991.24 989.83 989.33 989.65 989.27 989.32 989.16 989.69 990.13 990.92 990.79 990.03 989.77 989.57 990.11 990.26 990.77 990.44 990.60 991.11 991.23 990.88 990.13 989.18 988.90 988.76 989.13 990.43 990.97 991.64 991.46 991.66 992.09
1015.19 1012.21 1007.88 1005.83 1006.33 1006.50 1005.95 1001.42 998.98 997.64 995.40 993.87 992.22 990.99 989.45 988.51 988.66 987.99 987.88 988.32 988.75 989.30 990.24 989.69 989.12 988.69 989.07 989.96 989.45 989.70 990.57 990.93 990.73 990.15 989.28 988.96 988.18 987.64 988.32 989.18 990.21 990.54 990.97 991.02 991.39
1014.68 1010.27 1006.46 1005.15 1005.09 1005.65 1003.37 1001.30 1000.66 999.33 998.11 996.69 994.56 992.74 990.45 988.93 988.00 987.51 987.01 986.92 987.37 988.03 988.84 989.57 989.39 988.51 988.16 988.00 988.99 989.87 989.86 990.01 990.31 990.24 989.06 988.61 987.32 987.17 987.52 988.11 988.89 989.78 990.32 990.43 990.78
1013.72 1010.09 1005.14 1005.33 1005.38 1004.29 1002.88 1001.96 1001.47 999.61 998.40 996.62 995.64 994.05 992.30 990.67 988.56 987.24 986.42 986.17 986.47 986.80 987.23 988.30 988.94 988.39 987.53 987.48 988.18 988.64 988.74 989.65 989.60 989.33 988.96 988.46 986.80 986.79 986.79 986.93 987.74 988.53 989.28 989.68 990.11
1013.56 1010.18 1007.60 1006.14 1004.70 1003.78 1002.89 1001.64 1000.72 999.73 998.79 997.58 996.22 995.02 993.46 991.88 990.46 988.74 986.79 985.90 985.89 986.35 986.52 987.24 987.69 988.25 988.20 987.41 986.91 987.37 988.27 988.92 989.44 989.74 988.43 988.26 986.96 987.00 987.61 988.22 989.05 988.73 989.03 989.37 989.80
1014.68 1010.23 1007.11 1005.25 1004.74 1003.85 1003.42 1002.06 1000.83 1000.04 999.20 998.57 997.16 996.57 995.03 993.02 991.67 990.18 988.55 987.00 985.91 985.85 986.84 986.66 987.00 987.08 986.59 986.81 987.01 986.84 987.13 987.80 988.35 988.27 987.90 987.52 987.27 987.21 987.22 987.71 988.29 988.49 988.67 989.23 989.51
1015.25 1011.86 1009.27 1007.28 1005.75 1004.86 1005.83 1005.55 1003.41 1002.23 1001.03 1000.10 999.22 998.51 997.70 995.28 993.25 991.69 990.63 988.84 986.72 986.08 986.73 986.97 987.09 987.01 987.07 987.09 986.72 986.33 986.46 986.93 987.21 987.39 987.36 986.81 986.95 986.93 986.38 987.40 987.56 988.16 988.59 989.34 989.42
1015.77 1013.51 1011.67 1009.97 1008.07 1006.47 1005.54 1005.78 1004.76 1003.87 1002.80 1002.17 1001.06 1000.90 1000.08 999.11 998.61 996.14 993.13 990.45 987.90 986.74 986.71 987.15 987.30 987.93 987.05 986.83 986.53 985.94 985.82 985.80 985.95 986.43 986.66 986.90 986.46 986.45 986.46 986.42 986.92 987.57 989.18 988.64 989.00
1015.39 1014.83 1013.93 1011.57 1009.37 1007.75 1005.95 1005.06 1005.09 1005.26 1004.20 1003.58 1002.38 1002.69 1001.71 1001.00 1000.45 998.65 995.87 992.83 989.88 987.32 986.66 987.08 987.35 988.17 987.36 987.37 986.60 985.91 984.73 985.24 985.30 985.56 986.01 986.15 985.88 986.36 986.29 986.39 986.39 986.95 987.39 987.61 988.31
Wind_Speed
22 22 22 22 22 22 21 21 21 20 20 20 18 18 18 18 20 7 12 11 14 15 4 12 13 17 19 16 19 18 7 6 7 9 13 10 12 13 18 18 20 3 23 26 24
22 22 23 23 23 22 22 21 21 21 21 21 19 19 18 18 13 21 25 17 9 14 10 15 17 17 15 17 18 6 6 7 20 6 10 14 15 11 12 13 13 24 23 24 25
23 23 23 23 24 24 22 22 22 22 22 21 21 19 19 19 15 6 10 11 10 15 18 19 19 18 19 16 18 14 10 18 21 17 14 8 17 12 17 12 15 27 24 24 25
23 23 24 24 24 24 24 23 22 23 22 22 21 20 19 7 7 9 10 13 12 13 17 20 21 19 18 17 18 10 19 20 7 17 15 14 18 12 15 14 20 23 23 22 22
23 23 23 24 25 25 24 23 22 23 22 21 19 17 12 10 23 8 10 9 11 12 19 20 21 19 20 18 20 16 22 15 6 9 10 8 16 15 9 20 21 23 24 22 19
22 22 23 24 24 25 25 25 24 24 23 20 17 12 8 18 16 17 14 12 13 15 19 21 20 17 20 20 21 17 12 13 12 8 13 17 17 16 13 18 21 23 24 22 21
23 22 23 25 26 26 27 26 26 26 22 19 13 8 12 25 16 12 11 13 14 16 18 20 19 19 19 20 21 22 19 9 10 10 9 11 17 13 20 16 20 20 21 22 21
24 25 26 27 27 26 27 28 27 26 20 13 6 9 12 16 19 24 16 15 15 16 17 17 18 20 20 17 21 22 20 16 18 18 10 13 11 12 21 16 19 21 20 20 21
24 25 26 28 29 30 30 31 29 21 12 6 8 11 14 6 18 17 16 17 16 15 15 14 18 19 19 19 18 21 17 21 21 13 17 14 16 5 14 18 19 19 20 20 18
22 24 26 28 29 30 34 34 13 3 8 10 12 10 19 16 15 16 16 16 16 16 16 16 15 16 18 18 16 19 21 19 18 17 18 20 12 13 19 12 18 20 20 19 21
23 25 26 28 30 29 22 10 6 7 11 15 10 14 15 18 20 12 13 17 18 17 18 19 16 20 24 24 23 22 20 22 15 10 17 22 14 12 29 25 20 19 19 19 20
22 23 27 31 32 32 13 10 12 10 16 20 29 28 29 15 12 15 14 14 19 18 20 19 23 24 23 25 26 27 27 24 14 21 20 20 26 32 31 28 21 22 20 20 20
23 23 26 31 35 16 13 19 11 14 12 19 30 29 31 27 23 19 20 18 16 22 23 23 21 23 24 25 27 27 26 23 20 20 22 17 18 23 27 21 18 21 22 20 21
23 23 23 28 16 15 11 8 9 11 9 13 20 23 27 27 32 27 24 22 19 22 23 23 24 24 26 27 27 27 25 27 25 14 11 16 12 5 18 21 21 21 21 22 22
25 24 21 16 16 8 16 15 16 11 9 4 16 3 14 29 5 31 29 26 27 24 20 22 25 27 26 28 28 25 26 26 24 12 19 20 12 12 26 20 25 22 22 22 23
25 26 23 15 7 17 16 17 10 8 13 8 12 12 18 23 26 10 26 27 24 27 25 25 21 27 25 22 27 25 25 25 22 18 17 22 15 21 17 23 19 22 22 21 22
25 26 23 14 9 14 17 7 8 14 9 14 16 15 21 21 27 18 24 27 22 25 25 25 26 24 25 24 26 28 23 16 18 17 16 19 21 13 23 23 19 5 22 22 19
27 30 15 13 15 16 9 9 18 12 28 17 15 20 22 22 25 24 22 23 27 26 18 21 21 27 21 28 23 25 26 16 21 18 18 22 20 16 23 21 15 24 41 24 25
31 13 14 14 16 11 10 17 12 19 19 20 23 20 23 25 24 26 27 23 25 29 25 21 24 19 30 22 26 25 27 26 26 22 18 18 23 22 17 24 20 20 16 18 23
13 17 15 18 17 11 13 29 18 25 25 23 23 23 27 25 28 27 27 27 25 28 28 23 18 23 22 24 28 29 16 24 21 25 24 21 21 13 19 19 17 11 13 13 13
10 10 15 3 8 10 19 23 26 33 33 30 29 31 28 25 28 28 28 24 27 25 27 25 22 18 24 26 25 18 23 24 20 21 17 17 17 15 17 16 20 21 21 15 11
9 10 7 4 11 11 19 27 25 30 32 31 30 33 32 30 28 28 30 26 21 21 29 25 17 19 24 24 27 29 28 27 18 21 19 20 16 16 8 20 16 14 15 12 17
9 14 15 16 16 16 23 30 29 29 28 32 32 32 29 31 29 30 29 26 24 27 25 20 21 16 24 23 22 30 26 24 24 21 23 19 16 20 5 13 12 14 14 14 6
6 8 11 12 17 25 23 26 27 26 24 28 27 24 33 32 29 29 29 30 21 21 7 12 17 27 18 19 17 24 29 27 26 18 19 22 18 27 9 15 15 11 13 11 8
4 8 15 14 17 22 13 24 18 25 26 21 22 21 20 23 29 29 29 30 27 21 14 15 17 21 27 28 25 26 27 27 26 23 23 19 26 19 23 15 20 14 14 13 8
4 8 11 15 21 24 18 16 25 22 23 19 19 21 21 19 14 21 23 27 25 25 19 21 16 18 22 24 27 27 26 27 28 29 26 25 26 20 21 19 14 13 21 12 11
4 8 5 9 16 17 18 20 19 24 15 22 18 11 21 17 24 28 26 29 28 23 21 20 16 16 19 24 24 25 27 22 21 24 24 22 22 18 20 16 14 8 9 13 13
Wind_Direction
355 352 350 347 345 343 341 339 336 334 330 329 329 325 320 318 303 239 247 252 235 168 193 247 222 250 257 252 265 245 314 240 187 90 119 160 111 88 104 131 117 233 145 148 141
353 352 348 345 342 339 337 336 333 331 328 325 325 323 319 325 294 273 253 238 156 162 223 235 239 235 252 248 249 122 356 41 254 188 141 151 135 117 131 153 133 132 139 141 147
350 348 346 342 339 337 334 332 329 326 324 321 320 321 317 316 281 267 86 155 178 185 239 246 246 249 251 258 257 129 192 251 282 147 187 174 129 153 135 178 132 129 141 151 157
346 344 342 339 335 332 329 327 323 320 318 315 315 317 312 274 274 111 150 158 174 213 232 238 241 242 245 250 257 228 180 239 76 163 149 183 138 150 155 166 149 141 149 163 167
344 341 336 333 331 328 324 321 318 314 312 309 309 317 309 246 254 234 144 152 178 201 214 223 230 231 244 244 253 234 190 247 196 163 187 197 140 133 132 139 147 143 155 170 174
343 338 334 330 328 325 321 316 313 310 308 303 300 303 244 262 258 150 188 174 220 205 215 226 232 230 246 249 260 257 235 247 263 219 177 180 150 141 144 139 149 150 164 173 182
341 338 333 328 327 324 318 312 309 308 303 297 282 236 257 246 280 174 195 196 212 203 219 226 239 240 239 255 260 269 277 242 249 262 176 208 154 164 141 156 149 160 170 175 182
339 337 333 329 326 322 315 309 305 302 297 281 246 220 258 265 239 246 240 221 236 213 223 236 223 250 251 249 256 265 254 256 230 199 166 202 174 158 147 168 162 165 175 177 184
335 334 331 327 324 321 316 307 298 286 265 260 212 225 264 237 228 234 245 216 219 231 231 230 236 225 238 250 249 242 251 231 252 180 151 201 138 353 167 168 170 172 177 179 183
332 330 328 324 322 321 318 300 284 234 218 207 260 254 235 239 206 218 209 217 223 210 219 218 227 226 219 226 231 232 229 238 217 202 182 103 88 348 283 232 185 178 178 183 185
330 328 326 321 319 318 328 318 223 193 216 246 204 233 278 207 245 194 191 200 218 206 212 203 216 217 219 218 233 247 244 233 228 192 205 141 127 201 250 251 190 179 187 183 188
330 328 325 321 318 316 291 281 339 320 297 261 252 254 256 242 202 206 225 204 216 210 208 211 221 223 222 214 227 244 255 254 203 183 219 171 164 170 219 223 185 181 188 190 191
328 329 327 322 315 296 296 287 318 311 287 279 237 235 228 241 245 233 213 204 214 217 208 224 217 225 225 219 215 233 244 253 254 183 201 207 211 178 187 183 192 186 185 193 191
325 326 326 329 293 335 283 13 314 327 277 265 222 228 219 221 235 230 230 211 222 224 226 228 237 210 226 220 220 226 234 251 263 164 201 230 219 141 258 182 193 186 192 188 192
323 321 325 313 298 279 321 341 321 277 279 125 178 175 196 202 214 209 211 222 224 222 230 229 226 236 209 225 223 231 230 238 255 229 202 208 240 219 215 191 185 194 194 195 185
319 314 323 302 220 260 282 283 281 239 243 249 144 187 185 203 218 167 192 215 224 233 231 242 232 228 237 212 231 231 241 248 243 253 248 200 204 253 193 190 243 190 197 196 188
311 308 302 276 258 325 331 271 225 233 236 231 188 191 208 194 215 168 186 201 217 211 223 228 236 238 224 233 210 230 225 234 237 235 247 228 206 209 202 208 209 101 295 186 192
312 306 271 255 233 250 255 240 233 239 222 279 284 197 209 208 208 215 193 209 210 215 219 221 221 227 220 223 223 215 229 228 229 230 241 235 244 221 174 183 168 176 208 190 188
312 307 283 266 227 220 240 226 227 225 278 240 258 260 214 217 228 208 205 213 215 215 222 220 227 226 224 218 225 213 225 228 240 241 249 239 223 234 215 172 186 230 228 205 181
314 298 268 245 246 200 230 234 240 259 276 286 270 276 251 217 219 222 210 208 218 212 225 241 253 213 210 225 222 230 216 221 235 239 241 245 253 211 225 169 194 215 229 210 226
288 291 286 151 183 219 236 245 249 265 276 278 286 277 275 246 244 227 227 226 209 216 210 227 252 245 206 203 222 212 228 236 234 239 248 244 247 235 205 195 177 188 210 219 221
304 273 314 169 244 236 248 256 262 268 278 279 265 259 268 282 269 259 228 229 232 219 216 210 227 244 249 213 210 220 214 227 239 231 233 254 252 240 240 207 180 201 208 205 224
291 288 277 282 264 259 268 270 268 266 261 265 269 272 274 260 268 272 267 246 222 226 227 216 213 228 239 247 221 211 225 228 230 251 254 232 246 257 256 93 256 200 213 214 205
288 298 300 245 242 253 268 271 276 280 283 278 275 288 270 264 255 266 270 274 249 225 77 203 237 217 237 230 229 218 218 219 230 232 241 249 247 250 213 177 200 221 191 219 221
280 277 309 307 298 304 12 315 307 297 296 299 304 299 309 286 257 251 257 269 267 239 208 223 241 248 217 249 239 231 219 225 224 237 245 239 243 247 250 216 193 207 175 207 219
266 303 329 300 299 299 293 254 270 273 285 314 290 290 307 295 348 322 310 256 256 246 208 217 233 250 250 235 238 250 228 229 221 225 236 251 258 244 249 253 252 176 208 204 217
227 264 297 288 290 290 291 297 294 289 288 313 334 294 293 326 320 307 293 285 285 246 242 201 227 228 239 241 246 237 241 245 241 225 227 236 248 260 262 257 246 214 240 203 191